Home   Weather   Charleston   Past weeks
Flag for USA

Past Weather in Charleston, West Virginia, USA — Yesterday and Last 2 Weeks

Now
37 °F

Overcast.


Feels Like: 37 °F
Forecast: 50 / 34 °F
Wind: No wind

Location: Yeager Airport

Current Time: Jan 18, 2019 at 9:21:10 pm

Latest Report: Jan 18, 2019 at 7:54 pm


Visibility: 9 mi

Pressure: 30.19 "Hg

Humidity: 96%

Dew Point: 36 °F

Location of CharlestonLocation

Past Weather in Charleston — Graph

°F

Charleston Temperature Yesterday

Maximum temperature yesterday: 41 °F (at 11:54 am)
Minimum temperature yesterday: 33 °F (at 12:54 am)
Average temperature yesterday: 36 °F

High & Low Weather Summary for the Past Weeks

 TemperatureHumidityPressure
High63 °F (Jan 8, 3:54 pm)100% (Jan 3, 11:54 pm)30.47 "Hg (Jan 3, 11:54 pm)
Low22 °F (Jan 10, 5:54 am)36% (Jan 8, 6:54 pm)29.49 "Hg (Jan 4, 9:54 pm)
Average37 °F79%30.14 "Hg
* Reported Jan 3 7:54 pm — Jan 18 7:54 pm, Charleston. Weather by CustomWeather, © 2019

Note: Actual official high and low records may vary slightly from our data, if they occured in-between our weather recording intervals... More about our weather records

Advertising

Charleston Weather History for the Previous 24 Hours

Scroll right to see more
 ConditionsComfort  
Time TempWeatherWind HumidityBarometerVisibility
7:54 pm
Fri, Jan 18
37 °FOvercast.No wind96%30.19 "Hg9 mi
6:54 pm38 °FDrizzle. Fog.3 mph93%30.17 "Hg6 mi
6:05 pm38 °FDrizzle. Fog.3 mph90%30.16 "Hg5 mi
5:54 pm38 °FDrizzle. Fog.5 mph90%30.16 "Hg5 mi
4:54 pm40 °FOvercast.No wind83%30.14 "Hg10 mi
3:54 pm40 °FOvercast.No wind83%30.14 "Hg10 mi
2:54 pm40 °FOvercast.3 mph83%30.14 "Hg10 mi
1:54 pm40 °FMostly cloudy.3 mph83%30.12 "Hg10 mi
12:54 pm41 °FMostly cloudy.No wind82%30.13 "Hg10 mi
12:30 pm40 °FMostly cloudy.No wind86%30.13 "Hg10 mi
11:54 am40 °FMostly cloudy.No wind86%30.16 "Hg10 mi
10:54 am39 °FDrizzle. Mostly cloudy.No wind89%30.17 "Hg7 mi
9:54 am39 °FDrizzle. Mostly cloudy.No wind89%30.16 "Hg9 mi
8:54 am39 °FDrizzle. Mostly cloudy.No wind93%30.13 "Hg9 mi
7:54 am39 °FLow clouds.5 mph96%30.11 "Hg10 mi
6:54 am41 °FLight rain. Mostly cloudy.8 mph96%30.09 "Hg9 mi
5:54 am41 °FLight rain. Mostly cloudy.6 mph96%30.06 "Hg10 mi
4:54 am41 °FMostly cloudy.7 mph100%30.05 "Hg10 mi
4:33 am41 °FMostly cloudy.7 mph100%30.04 "Hg9 mi
3:54 am41 °FFog.6 mph100%30.05 "Hg1 mi
2:54 am42 °FFog.7 mph92%30.06 "Hg1 mi
1:54 am41 °FDrizzle. Fog.9 mph96%30.03 "Hg1 mi
12:54 am41 °FDrizzle. Fog.7 mph96%30.03 "Hg4 mi
12:30 am40 °FDrizzle. Fog.6 mph97%30.03 "Hg6 mi
11:54 pm
Thu, Jan 17
41 °FDrizzle. Overcast.7 mph93%30.04 "Hg7 mi
10:54 pm37 °FDrizzle. Fog.No wind100%30.05 "Hg4 mi
9:54 pm36 °FLight rain. Fog.5 mph100%30.04 "Hg5 mi
Weather by CustomWeather, © 2019

See weather overview